This is the latest recevied weather packets stored in our database for station/object KF0WJA. If no packets are shown the sender has not sent any weather packets the latest 10 day(s).
| Time | Temp. | Humidity | Pressure | Rain* | Wind** | Luminosity | Snow |
|---|---|---|---|---|---|---|---|
| 1788287893 | 36.11° C | 32% | 1018.2 hPa | 0 mm | - | 688 W/m² | - |
| 1788287592 | 36.11° C | 32% | 1018.2 hPa | 0 mm | - | 271 W/m² | - |
| 1788287289 | 37.22° C | 31% | 1018.3 hPa | 0 mm | - | 765 W/m² | - |
| 1788286988 | 36.67° C | 31% | 1018.2 hPa | 0 mm | - | 724 W/m² | - |
| 1788286683 | 37.22° C | 29% | 1018.2 hPa | 0 mm | - | 685 W/m² | - |
| 1788286383 | 37.22° C | 29% | 1018.2 hPa | 0 mm | - | 714 W/m² | - |
| 1788286077 | 36.67° C | 31% | 1018.4 hPa | 0 mm | - | 766 W/m² | - |
| 1788285776 | 36.67° C | 32% | 1018.5 hPa | 0 mm | - | 398 W/m² | - |
| 1788285475 | 36.11° C | 33% | 1018.5 hPa | 0 mm | - | 720 W/m² | - |
| 1788285170 | 36.11° C | 33% | 1018.6 hPa | 0 mm | - | 717 W/m² | - |
| 1788284865 | 35.56° C | 33% | 1018.6 hPa | 0 mm | - | 721 W/m² | - |
| 1788284575 | 36.67° C | 33% | 1018.7 hPa | 0 mm | - | 700 W/m² | - |
| 1788284257 | 36.11° C | 33% | 1018.7 hPa | 0 mm | - | 719 W/m² | - |
| 1788283951 | 36.67° C | 33% | 1018.6 hPa | 0 mm | - | 696 W/m² | - |
| 1788283648 | 36.11° C | 34% | 1018.9 hPa | 0 mm | - | 698 W/m² | - |
| 1788283346 | 36.67° C | 34% | 1018.9 hPa | 0 mm | - | 707 W/m² | - |
| 1788283045 | 36.11° C | 34% | 1019 hPa | 0 mm | - | 675 W/m² | - |
| 1788282744 | 36.11° C | 34% | 1019 hPa | 0 mm | - | 682 W/m² | - |
| 1788282444 | 36.11° C | 35% | 1019.2 hPa | 0 mm | - | 652 W/m² | - |
| 1788282138 | 35.56° C | 36% | 1019.2 hPa | 0 mm | - | 662 W/m² | - |
| 1788281837 | 35.56° C | 36% | 1019.3 hPa | 0 mm | - | 664 W/m² | - |
| 1788281532 | 36.11° C | 36% | 1019.1 hPa | 0 mm | - | 659 W/m² | - |
| 1788281229 | 35.56° C | 36% | 1019.3 hPa | 0 mm | - | 663 W/m² | - |
| 1788280929 | 35.56° C | 36% | 1019.3 hPa | 0 mm | - | 663 W/m² | - |
| 1788280624 | 35.56° C | 36% | 1019.4 hPa | 0 mm | - | 665 W/m² | - |
* Rain latest hour (hover to see other rain measurements)
** Current wind speed in m/s (hover to see current wind gust speed)